JST812 YSSY-YBBN

Flight info

Callsign JST812
Flight time N/A
Altitude 37000
Route TESAT H252 OLSEM Y193 BANDA H252 BN
Aircraft A320/M-SDE3FGHIRWY/LB1

Departure

Time 2026-05-05 21:36
Airport Sydney Kingsford Smith International Airport (YSSY)

Arrival

Time N/A
Airport Brisbane International Airport (YBBN)
Time Latitude Longitude Altitude Speed Heading
2026-05-05 21:25 -33.93701 151.17797 30 ft 0 kts 194°
2026-05-05 21:27 -33.93728 151.17789 30 ft 8 kts 194°
2026-05-05 21:27 -33.93803 151.17767 30 ft 15 kts 194°
2026-05-05 21:27 -33.93869 151.17656 29 ft 21 kts 255°
2026-05-05 21:28 -33.93910 151.17471 27 ft 25 kts 254°
2026-05-05 21:28 -33.93960 151.17270 29 ft 18 kts 251°
2026-05-05 21:28 -33.94063 151.17250 29 ft 18 kts 167°
2026-05-05 21:28 -33.94194 151.17286 28 ft 21 kts 167°
2026-05-05 21:29 -33.94343 151.17321 30 ft 23 kts 167°
2026-05-05 21:29 -33.94508 151.17364 30 ft 26 kts 168°
2026-05-05 21:29 -33.94692 151.17410 30 ft 28 kts 168°
2026-05-05 21:29 -33.94882 151.17459 30 ft 23 kts 168°
2026-05-05 21:30 -33.95049 151.17504 30 ft 26 kts 168°
2026-05-05 21:30 -33.95235 151.17550 29 ft 29 kts 167°
2026-05-05 21:30 -33.95435 151.17603 30 ft 31 kts 168°
2026-05-05 21:30 -33.95645 151.17659 30 ft 23 kts 168°
2026-05-05 21:31 -33.95751 151.17687 30 ft 15 kts 167°
2026-05-05 21:31 -33.95866 151.17715 30 ft 18 kts 168°
2026-05-05 21:31 -33.95999 151.17750 30 ft 21 kts 166°
2026-05-05 21:31 -33.96152 151.17788 30 ft 24 kts 169°
2026-05-05 21:32 -33.96281 151.17816 30 ft 7 kts 167°
2026-05-05 21:32 -33.96338 151.17839 30 ft 10 kts 161°
2026-05-05 21:32 -33.96403 151.17883 30 ft 12 kts 126°
2026-05-05 21:32 -33.96426 151.17983 30 ft 14 kts 77°
2026-05-05 21:33 -33.96369 151.18045 30 ft 11 kts 335°
2026-05-05 21:33 -33.96312 151.18034 30 ft 2 kts 348°
2026-05-05 21:35 -33.96260 151.18021 29 ft 33 kts 347°
2026-05-05 21:35 -33.95794 151.17900 29 ft 102 kts 348°
2026-05-05 21:35 -33.94924 151.17678 32 ft 152 kts 348°
2026-05-05 21:35 -33.93795 151.17406 371 ft 171 kts 348°
2026-05-05 21:36 -33.92582 151.17152 960 ft 182 kts 349°
2026-05-05 21:36 -33.91298 151.16859 1409 ft 199 kts 337°
2026-05-05 21:36 -33.90268 151.15693 1725 ft 217 kts 292°
2026-05-05 21:36 -33.90043 151.13831 2142 ft 235 kts 262°
2026-05-05 21:37 -33.90629 151.11978 2838 ft 243 kts 231°
2026-05-05 21:37 -33.91976 151.10781 3582 ft 245 kts 197°
2026-05-05 21:37 -33.93664 151.10684 4363 ft 245 kts 163°
2026-05-05 21:37 -33.95112 151.11708 5173 ft 244 kts 130°
2026-05-05 21:38 -33.95866 151.13523 5890 ft 251 kts 98°
2026-05-05 21:38 -33.95636 151.15637 6497 ft 265 kts 64°
2026-05-05 21:38 -33.94733 151.17597 7328 ft 271 kts 59°
2026-05-05 21:38 -33.93601 151.19431 8156 ft 276 kts 48°
2026-05-05 21:39 -33.92336 151.21209 8973 ft 283 kts 48°
2026-05-05 21:39 -33.91043 151.23043 9785 ft 290 kts 48°
2026-05-05 21:39 -33.89714 151.24937 10353 ft 306 kts 49°
2026-05-05 21:39 -33.88304 151.26947 10636 ft 329 kts 49°
2026-05-05 21:40 -33.86787 151.29124 11156 ft 342 kts 49°
2026-05-05 21:40 -33.85249 151.31336 11878 ft 347 kts 49°
2026-05-05 21:40 -33.83713 151.33541 12610 ft 351 kts 49°
2026-05-05 21:40 -33.82134 151.35800 13358 ft 355 kts 49°
2026-05-05 21:41 -33.80534 151.38084 14087 ft 358 kts 48°
2026-05-05 21:41 -33.78919 151.40382 14720 ft 362 kts 48°
2026-05-05 21:41 -33.77282 151.42711 15350 ft 366 kts 48°
2026-05-05 21:41 -33.75628 151.45063 15960 ft 370 kts 48°
2026-05-05 21:42 -33.73955 151.47447 16573 ft 374 kts 48°
2026-05-05 21:42 -33.72268 151.49847 17194 ft 379 kts 48°
2026-05-05 21:42 -33.70557 151.52279 17812 ft 383 kts 48°
2026-05-05 21:42 -33.68828 151.54733 18420 ft 387 kts 48°
2026-05-05 21:43 -33.67078 151.57218 18969 ft 391 kts 48°
2026-05-05 21:43 -33.65273 151.59674 19538 ft 393 kts 43°
2026-05-05 21:43 -33.63173 151.61780 20109 ft 394 kts 32°
2026-05-05 21:43 -33.60873 151.63584 20692 ft 396 kts 31°
2026-05-05 21:44 -33.58555 151.65393 21245 ft 399 kts 31°
2026-05-05 21:44 -33.56219 151.67219 21782 ft 402 kts 31°
2026-05-05 21:44 -33.53864 151.69065 22303 ft 405 kts 31°
2026-05-05 21:44 -33.51497 151.70924 22836 ft 408 kts 30°
2026-05-05 21:45 -33.49021 151.72498 23342 ft 408 kts 20°
2026-05-05 21:45 -33.46334 151.73578 23839 ft 408 kts 12°
2026-05-05 21:45 -33.43584 151.74464 24282 ft 410 kts 12°
2026-05-05 21:45 -33.40825 151.75354 24731 ft 412 kts 12°
2026-05-05 21:46 -33.38044 151.76250 25178 ft 414 kts 12°
2026-05-05 21:46 -33.35250 151.77149 25615 ft 416 kts 12°
2026-05-05 21:46 -33.32446 151.78049 26048 ft 418 kts 11°
2026-05-05 21:46 -33.29627 151.78960 26482 ft 420 kts 11°
2026-05-05 21:47 -33.26797 151.79878 26910 ft 423 kts 11°
2026-05-05 21:47 -33.23949 151.80803 27325 ft 425 kts 11°
2026-05-05 21:47 -33.21089 151.81725 27744 ft 427 kts 11°
2026-05-05 21:47 -33.18216 151.82648 28170 ft 429 kts 11°
2026-05-05 21:48 -33.15322 151.83577 28595 ft 431 kts 11°
2026-05-05 21:48 -33.12459 151.84495 29013 ft 433 kts 10°
2026-05-05 21:48 -33.09542 151.85432 29425 ft 436 kts 10°
2026-05-05 21:48 -33.06608 151.86380 29836 ft 438 kts 10°
2026-05-05 21:49 -33.03652 151.87333 30233 ft 440 kts 10°
2026-05-05 21:49 -33.00683 151.88288 30572 ft 443 kts 10°
2026-05-05 21:49 -32.97704 151.89241 30898 ft 445 kts 10°
2026-05-05 21:49 -32.94708 151.90196 31221 ft 447 kts
2026-05-05 21:50 -32.91687 151.91158 31545 ft 450 kts
2026-05-05 21:50 -32.88670 151.92122 31982 ft 449 kts
2026-05-05 21:50 -32.85654 151.93092 32470 ft 448 kts
2026-05-05 21:50 -32.82653 151.94059 32950 ft 447 kts
2026-05-05 21:51 -32.79651 151.95021 33411 ft 446 kts
2026-05-05 21:51 -32.76660 151.95976 33894 ft 445 kts
2026-05-05 21:51 -32.73677 151.96926 34351 ft 444 kts
2026-05-05 21:51 -32.70732 151.97861 34760 ft 443 kts
2026-05-05 21:52 -32.69213 151.98341 34973 ft 442 kts